Weather in Ishgl

Austria     46°59′18″N   10°14′26″E
temp.,
°C
wind,
m/s
gust,
m/s
humid.,
%
clouds,
%
prec.,
mm/h
press.,
hPa
HPBL,
m
28 november, sun
sun2801:00−10nne3496100 3.2 997221
04:00−10nnw3497100 2.1 997227
07:00−12nnw1197100 3.4 99937
10:00−10nnw2292100 0.7 998302
13:00−10nnw3385100 1.1 997597
16:00−12nnw2296100 0.3 99913
19:00−15wnw1110091 0.3 10039
22:00−17w1199100 0.1 10059
29 november, mon
mon2901:00−16nw119697 0.1 100510
04:00−13n1297100 0.6 100351
07:00−12nw2297100 2.3 1004142
10:00−11wnw2392100 1.4 1008375
13:00−11nw3389100 2.3 1009515
16:00−14nw329762 1.3 101422
19:00−15wnw2297100 1.7 101934
22:00−16wnw229796 0.4 102310
30 november, tue
tue3001:00−18sw229875 0.6 102611
04:00−16wsw2296100 0.1 102623
07:00−16sw329457 0.3 102715
10:00−10wsw3384100 0.0 1023115
13:00−8wsw3492100 0.3 1020221
16:00−7wsw4495100 2.5 1019135
19:00−6wsw3396100 5.2 102086
22:00−7wsw339690 1.2 102140
1 december, wed
wed101:00−8sw329386 1.3 102013
04:00−9ssw33845 0.0 101812
07:00−9ssw43805 0.0 101515
10:00−4sw448057 0.0 100980
13:00−1ssw45815 0.0 1004374
16:00−5s3391100 0.0 100526
19:00−10ssw4494100 0.0 100929
22:00−9ssw4493100 0.3 100765
2 december, thu
thu201:00−7ssw3396100 2.2 1004112
04:00−8ssw2296100 2.2 100262
07:00−8nnw1197100 3.7 100149
10:00−6n2295100 1.7 1000206
13:00−6nnw2391100 2.6 998439
16:00−8nw2296100 0.9 999128
19:00−9nnw2297100 1.8 100151
22:00−10nw2297100 1.2 100336